Back to catalog

STARLINK-30814

AliveCommunicationsVLEO
NORAD 58165·PAYLOAD·🇺🇸 United States

Launched Oct 29, 2023 from Vandenberg Space Force Base

Loading…

Next Passes (next 24 hours)

TLE

FreshSource: CelesTrak SupGP

Epoch: Sep 14, 2026, 14:26 UTC

1 58165C 23166R   26257.60187500 -.00046198  00000+0 -13645-2 0  2579
2 58165  53.1605  61.1996 0001259  87.1212 352.9961 15.34423452    16

Track STARLINK-30814 in real time with AllMySat

Download on the App Store